Flag for Germany Weather past 2 weeks in Neumünster, Schleswig-Holstein, Germany

Now
50 °F

Overcast.


Feels Like: 50 °F
Forecast: 47 / 57 °F
Wind: 2 mph from Northwest

Location: Itzehoe

Current Time: Oct 23, 2014 at 1:17:45 AM

Latest Report: Oct 23, 2014 at 1:00 AM


Visibility: 8 mi

Pressure: 30.05 "Hg

Humidity: 89%

Dew point: 47 °F

Location of NeumünsterLocation

Historic Weather in Neumünster — Graph

°F

Neumünster temperature yesterday

Maximum temperature yesterday: 57 °F (at 3:00 PM)
Minimum temperature yesterday: 49 °F (at 1:00 AM)
Average temperature yesterday: 52 °F

Past Weeks' High & Low Weather Summary

 TemperatureHumidityPressure
High69 °F (Oct 19, 3:00 PM)100% (Oct 14, 12:00 AM)30.14 "Hg (Oct 14, 12:00 AM)
Low42 °F (Oct 11, 7:00 AM)64% (Oct 14, 4:00 PM)29.32 "Hg (Oct 21, 7:00 PM)
Average56 °F89%29.78 "Hg
* Reported Midnight between Oct 7 and Oct 8 — Midnight between Oct 22 and Oct 23, Neumünster, Weather by CustomWeather, © 2014

Note: Actual official high and low records may vary slightly from our data, if they occured in-between our weather recording intervals... More about our weather records

Advertising

Neumünster weather history for previous 24 hours

 ConditionsComfort  
Time TempWeatherWind HumidityBarometerVisibility
12:00 AM
Oct 23
50 °FOvercast.3 mph91%30.04 "Hg9 mi
10:00 PM
Oct 22
51 °FLow clouds.6 mph96%30.01 "Hg2 mi
9:00 PM52 °FLow clouds.6 mph91%29.98 "Hg8 mi
7:00 PM52 °FOvercast.6 mph90%29.93 "Hg11 mi
6:00 PM53 °FOvercast.7 mph88%29.90 "Hg18 mi
4:00 PM56 °FPartly sunny.6 mph83%29.82 "Hg19 mi
3:00 PM57 °FScattered clouds.6 mph73%29.79 "Hg22 mi
1:00 PM56 °FPassing clouds.5 mph80%29.74 "Hg19 mi
12:00 PM53 °FPassing clouds.3 mph86%29.71 "Hg28 mi
10:00 AM51 °FPartly sunny.7 mph90%29.62 "Hg25 mi
9:00 AM51 °FOvercast.6 mph90%29.57 "Hg28 mi
7:00 AM53 °FOvercast.6 mph84%29.47 "Hg16 mi
6:00 AM52 °FOvercast.6 mph87%29.50 "Hg12 mi
4:00 AM52 °FOvercast.6 mph88%29.50 "Hg11 mi
3:00 AM49 °FOvercast.3 mph95%29.47 "Hg14 mi
1:00 AM49 °FOvercast.2 mph93%29.44 "Hg22 mi
Weather by CustomWeather, © 2014

See weather overviewHow to use our weather pages